Temp
-7 -6 -6 -6 -6 -6 -6 -6 -7 -6 -6 -6 -7 -6 -6 -5 -6 -7 -7 -7 -7 -7 -7 -7 -8 -8 -8 -8 -9 -9 -9 -9 -9 -8 -8 -8 -8 -8 -8 -8 -8 -8 -8
-7 -7 -6 -6 -6 -6 -6 -6 -6 -6 -6 -6 -6 -6 -6 -6 -6 -7 -7 -7 -7 -7 -7 -7 -7 -8 -8 -8 -9 -9 -9 -9 -9 -8 -8 -8 -8 -8 -8 -8 -8 -8 -8
-7 -6 -6 -6 -6 -6 -6 -6 -6 -6 -6 -7 -6 -5 -5 -6 -6 -7 -7 -7 -7 -7 -7 -7 -8 -8 -8 -8 -9 -9 -9 -9 -9 -8 -8 -8 -8 -8 -8 -9 -9 -8 -8
-6 -7 -6 -6 -6 -6 -6 -6 -6 -4 -6 -6 -6 -6 -5 -5 -5 -6 -7 -7 -8 -7 -7 -6 -7 -8 -8 -8 -8 -9 -9 -9 -8 -8 -8 -8 -8 -8 -9 -9 -9 -8 -8
-6 -6 -6 -6 -6 -6 -6 -6 -6 -6 -6 -6 -6 -5 -6 -6 -6 -6 -7 -7 -7 -7 -7 -7 -7 -7 -7 -8 -8 -8 -9 -8 -8 -8 -8 -8 -8 -9 -9 -9 -9 -8 -8
-6 -6 -6 -6 -6 -6 -6 -6 -6 -6 -6 -6 -6 -6 -6 -6 -6 -6 -6 -6 -7 -7 -7 -7 -7 -7 -7 -7 -8 -8 -8 -8 -8 -8 -8 -8 -8 -9 -9 -8 -8 -8 -8
-6 -6 -6 -6 -6 -6 -6 -7 -7 -6 -6 -6 -6 -7 -7 -6 -6 -6 -6 -7 -6 -7 -7 -7 -7 -7 -7 -7 -7 -8 -8 -8 -8 -8 -8 -9 -8 -8 -8 -8 -8 -8 -7
-6 -6 -6 -6 -6 -5 -6 -7 -7 -6 -6 -5 -6 -7 -7 -7 -6 -6 -6 -6 -6 -6 -6 -7 -7 -7 -7 -7 -7 -8 -8 -8 -8 -8 -8 -8 -8 -8 -8 -8 -8 -7 -7
-6 -6 -6 -6 -5 -6 -6 -6 -7 -6 -6 -6 -6 -7 -6 -7 -8 -7 -6 -6 -6 -6 -6 -7 -7 -7 -7 -6 -7 -7 -7 -8 -7 -7 -7 -7 -7 -7 -7 -7 -7 -7 -7
-6 -6 -6 -6 -6 -6 -6 -6 -6 -6 -6 -6 -6 -6 -7 -7 -7 -7 -7 -6 -7 -6 -7 -7 -7 -7 -7 -7 -7 -7 -7 -7 -7 -7 -7 -7 -7 -7 -6 -6 -6 -6 -6
-6 -6 -6 -6 -6 -6 -6 -6 -6 -7 -7 -7 -7 -6 -6 -6 -6 -6 -7 -7 -7 -7 -7 -7 -7 -7 -7 -7 -7 -6 -7 -7 -7 -7 -7 -6 -6 -6 -6 -6 -6 -6 -6
-7 -6 -6 -6 -6 -6 -6 -6 -6 -6 -6 -6 -6 -6 -6 -5 -6 -7 -6 -7 -7 -7 -6 -6 -7 -7 -7 -6 -6 -6 -6 -6 -6 -6 -7 -6 -6 -6 -6 -6 -6 -6 -6
-7 -7 -7 -6 -6 -6 -6 -6 -6 -6 -6 -6 -6 -6 -6 -6 -6 -6 -7 -6 -7 -7 -7 -6 -7 -6 -7 -7 -6 -6 -6 -6 -6 -6 -6 -6 -6 -6 -6 -6 -6 -6 -6
-6 -6 -6 -6 -6 -6 -6 -6 -6 -6 -6 -6 -6 -6 -6 -7 -6 -6 -7 -7 -6 -7 -7 -7 -7 -6 -6 -6 -6 -6 -5 -5 -6 -6 -6 -6 -6 -6 -6 -6 -6 -6 -6
-6 -6 -6 -6 -6 -6 -6 -6 -6 -6 -7 -7 -7 -7 -7 -7 -7 -7 -7 -6 -6 -6 -6 -7 -7 -7 -7 -6 -7 -7 -6 -5 -5 -6 -6 -6 -5 -6 -6 -6 -6 -6 -6
-7 -7 -7 -7 -6 -6 -6 -6 -6 -6 -6 -6 -7 -7 -7 -6 -7 -7 -7 -7 -7 -7 -7 -7 -7 -7 -6 -6 -7 -7 -7 -6 -6 -5 -6 -6 -6 -6 -5 -5 -5 -6 -6
-6 -6 -6 -6 -6 -6 -6 -6 -6 -6 -6 -6 -6 -6 -7 -7 -7 -7 -7 -7 -7 -6 -6 -6 -7 -7 -7 -6 -6 -7 -6 -5 -5 -6 -5 -5 -5 -6 -6 -6 -6 -6 -6
-6 -6 -6 -6 -6 -6 -6 -6 -6 -6 -6 -6 -6 -6 -6 -6 -6 -7 -7 -7 -6 -6 -6 -6 -6 -6 -6 -6 -6 -6 -6 -6 -5 -6 -6 -6 -6 -6 -6 -6 -6 -6 -6
-6 -6 -6 -6 -6 -6 -6 -6 -6 -6 -6 -5 -5 -5 -6 -6 -6 -6 -6 -6 -6 -6 -6 -7 -7 -7 -6 -7 -7 -6 -6 -6 -5 -6 -6 -6 -7 -6 -6 -6 -5 -6 -6
-5 -6 -5 -6 -6 -6 -6 -6 -6 -6 -6 -6 -6 -6 -6 -6 -6 -6 -6 -6 -6 -6 -6 -7 -7 -7 -6 -6 -7 -7 -6 -6 -6 -6 -7 -6 -6 -6 -6 -6 -6 -5 -5
-6 -5 -5 -5 -5 -5 -5 -6 -6 -6 -6 -6 -6 -6 -6 -6 -6 -6 -6 -6 -6 -6 -6 -6 -7 -7 -7 -6 -6 -6 -6 -6 -7 -7 -7 -7 -7 -7 -6 -6 -6 -6 -6
-6 -6 -5 -5 -5 -5 -5 -5 -5 -6 -6 -6 -6 -6 -6 -6 -6 -6 -6 -6 -6 -6 -6 -6 -6 -6 -7 -7 -6 -5 -6 -6 -6 -7 -7 -6 -6 -7 -7 -7 -7 -7 -6
-6 -5 -6 -6 -5 -5 -5 -5 -5 -5 -5 -6 -6 -6 -6 -6 -6 -6 -6 -6 -6 -6 -6 -5 -5 -6 -6 -6 -7 -7 -6 -6 -6 -7 -7 -7 -6 -7 -7 -7 -7 -6 -7
-6 -6 -6 -6 -6 -6 -5 -5 -5 -5 -6 -6 -6 -6 -6 -6 -6 -6 -6 -6 -6 -6 -6 -6 -6 -6 -6 -6 -6 -6 -6 -6 -7 -7 -7 -7 -7 -6 -6 -7 -7 -7 -6
-6 -6 -6 -6 -6 -6 -6 -6 -6 -6 -6 -6 -6 -6 -6 -6 -6 -6 -6 -6 -7 -6 -7 -7 -6 -6 -6 -6 -6 -6 -6 -6 -6 -7 -7 -7 -8 -7 -5 -6 -6 -6 -6
-6 -6 -7 -7 -7 -7 -6 -6 -6 -6 -6 -6 -7 -7 -7 -7 -7 -7 -7 -7 -7 -7 -7 -6 -6 -6 -6 -6 -6 -6 -6 -6 -6 -6 -8 -8 -8 -8 -7 -6 -6 -6 -7
Height
5911 5911 5911 5912 5914 5915 5916 5916 5913 5912 5911 5911 5907 5908 5914 5894 5891 5904 5904 5904 5902 5905 5907 5909 5914 5917 5920 5922 5924 5926 5928 5930 5932 5934 5935 5937 5939 5940 5941 5942 5944 5945 5948
5909 5908 5908 5911 5913 5914 5915 5916 5913 5915 5909 5910 5909 5910 5912 5911 5906 5903 5910 5908 5906 5908 5911 5912 5915 5918 5921 5923 5924 5926 5929 5930 5932 5934 5936 5937 5939 5941 5942 5943 5944 5946 5948
5908 5908 5908 5908 5912 5914 5915 5917 5915 5912 5913 5910 5910 5914 5916 5914 5911 5913 5909 5907 5909 5909 5914 5915 5917 5919 5921 5923 5925 5927 5929 5930 5933 5935 5937 5938 5940 5941 5942 5943 5944 5946 5949
5907 5908 5908 5909 5910 5913 5914 5916 5917 5915 5913 5915 5915 5906 5912 5914 5912 5912 5911 5909 5908 5911 5915 5918 5918 5918 5921 5923 5925 5927 5929 5931 5933 5935 5937 5939 5940 5941 5942 5943 5944 5946 5948
5906 5906 5906 5908 5909 5911 5913 5915 5917 5917 5917 5917 5916 5915 5914 5913 5914 5913 5911 5911 5913 5915 5917 5919 5920 5921 5921 5923 5925 5927 5929 5931 5933 5935 5937 5939 5940 5941 5942 5943 5944 5946 5948
5903 5904 5905 5907 5909 5910 5912 5914 5916 5915 5914 5915 5917 5916 5917 5919 5916 5915 5915 5914 5917 5919 5920 5920 5920 5922 5923 5924 5925 5927 5929 5931 5933 5935 5937 5938 5939 5941 5942 5943 5944 5945 5947
5900 5901 5903 5906 5908 5910 5912 5913 5911 5914 5917 5913 5915 5915 5914 5915 5912 5913 5916 5918 5917 5919 5921 5922 5921 5922 5924 5925 5926 5928 5930 5931 5933 5935 5936 5938 5940 5940 5941 5943 5945 5946 5947
5897 5899 5901 5904 5907 5909 5911 5910 5911 5913 5916 5896 5911 5916 5915 5914 5914 5913 5914 5914 5916 5917 5919 5922 5923 5924 5924 5925 5927 5928 5929 5931 5933 5935 5936 5937 5939 5941 5942 5943 5945 5946 5947
5895 5897 5900 5903 5905 5908 5911 5911 5910 5912 5914 5914 5913 5915 5911 5911 5913 5914 5914 5913 5916 5916 5916 5918 5920 5923 5925 5925 5926 5928 5930 5931 5933 5934 5935 5936 5938 5940 5942 5943 5945 5946 5948
5893 5896 5899 5902 5905 5908 5910 5912 5911 5910 5910 5912 5910 5911 5913 5915 5911 5910 5910 5914 5916 5916 5915 5918 5917 5919 5921 5923 5926 5927 5928 5930 5932 5933 5935 5936 5938 5939 5941 5942 5944 5945 5947
5895 5897 5899 5902 5905 5908 5910 5912 5913 5913 5913 5912 5908 5903 5914 5910 5913 5907 5912 5913 5914 5912 5911 5916 5916 5918 5921 5919 5919 5924 5926 5928 5930 5932 5934 5935 5937 5939 5940 5941 5942 5943 5945
5898 5899 5901 5903 5905 5907 5909 5910 5911 5913 5912 5914 5911 5912 5913 5890 5912 5910 5911 5910 5910 5913 5915 5915 5914 5913 5916 5920 5920 5919 5922 5925 5927 5929 5931 5933 5935 5936 5938 5940 5941 5942 5943
5899 5901 5902 5904 5906 5907 5908 5909 5910 5911 5911 5911 5913 5914 5913 5913 5912 5913 5911 5908 5904 5910 5911 5912 5915 5910 5910 5915 5918 5919 5919 5921 5924 5926 5928 5930 5932 5933 5935 5937 5939 5940 5941
5901 5903 5903 5904 5905 5906 5908 5909 5909 5909 5910 5909 5910 5910 5910 5912 5909 5914 5911 5908 5892 5909 5901 5901 5913 5912 5911 5906 5913 5915 5916 5917 5920 5923 5924 5926 5928 5930 5931 5933 5935 5936 5937
5902 5903 5903 5903 5904 5905 5906 5908 5908 5908 5908 5909 5908 5908 5906 5905 5908 5909 5910 5912 5912 5911 5910 5906 5908 5904 5908 5904 5907 5909 5914 5916 5916 5919 5921 5922 5924 5926 5928 5929 5931 5932 5932
5903 5902 5903 5903 5904 5905 5906 5906 5906 5907 5907 5907 5907 5907 5907 5906 5904 5905 5904 5904 5906 5909 5907 5904 5902 5900 5889 5875 5905 5887 5909 5917 5915 5914 5916 5918 5919 5921 5923 5925 5927 5928 5929
5901 5902 5903 5903 5904 5904 5904 5904 5904 5904 5905 5905 5905 5905 5904 5904 5904 5902 5900 5898 5898 5903 5905 5899 5899 5899 5900 5899 5904 5901 5903 5913 5916 5912 5912 5912 5914 5915 5916 5917 5919 5919 5920
5900 5902 5902 5902 5902 5902 5902 5902 5902 5902 5902 5903 5903 5903 5903 5902 5901 5900 5900 5899 5896 5896 5901 5900 5895 5900 5896 5893 5894 5897 5899 5906 5908 5908 5907 5909 5910 5911 5912 5914 5915 5916 5917
5899 5899 5899 5899 5899 5899 5899 5898 5898 5898 5899 5900 5900 5900 5900 5899 5898 5897 5896 5896 5894 5892 5892 5894 5895 5893 5898 5899 5898 5896 5898 5900 5899 5899 5901 5902 5904 5905 5907 5908 5909 5909 5910
5896 5895 5895 5895 5895 5895 5895 5895 5895 5895 5894 5895 5895 5895 5896 5895 5895 5893 5892 5891 5890 5890 5888 5886 5887 5890 5888 5890 5892 5892 5894 5895 5893 5895 5895 5894 5893 5896 5900 5904 5908 5910 5908
5891 5890 5890 5890 5890 5890 5890 5890 5890 5889 5889 5889 5889 5889 5889 5890 5889 5888 5888 5886 5885 5884 5884 5883 5882 5883 5886 5885 5884 5883 5885 5886 5887 5886 5884 5886 5886 5886 5889 5893 5898 5901 5903
5885 5884 5884 5884 5884 5883 5883 5884 5883 5882 5883 5883 5881 5881 5881 5881 5881 5880 5880 5879 5879 5878 5877 5876 5875 5875 5876 5877 5875 5874 5878 5879 5879 5874 5876 5880 5854 5878 5882 5887 5885 5888 5892
5879 5878 5878 5877 5877 5876 5874 5876 5875 5875 5875 5875 5875 5874 5873 5873 5872 5871 5870 5871 5871 5870 5869 5868 5869 5868 5865 5867 5868 5866 5868 5872 5872 5867 5867 5872 5871 5872 5873 5877 5876 5873 5882
5873 5872 5871 5870 5870 5869 5867 5866 5866 5866 5866 5866 5866 5865 5864 5864 5863 5860 5860 5861 5860 5860 5861 5859 5859 5859 5857 5857 5859 5858 5858 5862 5863 5862 5857 5864 5863 5865 5866 5870 5872 5870 5873
5865 5864 5863 5862 5861 5860 5858 5857 5856 5856 5855 5855 5854 5853 5852 5852 5851 5848 5846 5849 5850 5851 5849 5847 5848 5850 5849 5848 5847 5848 5851 5850 5856 5855 5850 5852 5856 5856 5856 5859 5862 5863 5863
5855 5854 5853 5851 5851 5850 5848 5846 5844 5844 5844 5843 5842 5841 5840 5838 5837 5835 5834 5834 5834 5838 5835 5835 5836 5838 5838 5839 5837 5837 5840 5840 5842 5845 5846 5840 5842 5844 5846 5844 5847 5850 5852
Wind_Speed
8 8 7 5 3 2 2 1 2 3 6 10 7 3 2 14 13 7 12 13 20 21 18 15 15 14 12 11 11 11 13 12 10 8 6 7 9 9 7 5 6 8 10
9 10 10 6 6 4 1 0 3 4 4 6 7 2 5 7 10 8 8 8 14 12 10 12 13 12 11 11 11 11 11 13 10 8 6 6 8 8 7 5 5 8 10
8 3 4 18 8 5 5 3 4 3 4 8 7 3 3 7 5 6 9 14 11 12 7 11 12 10 10 9 10 11 11 11 10 7 7 6 6 6 6 4 4 8 11
8 4 5 6 8 6 5 4 2 6 2 3 4 4 3 5 3 4 5 9 12 7 6 8 9 11 9 9 10 11 11 10 9 9 8 6 5 5 5 5 5 8 10
9 7 3 9 8 6 4 4 2 4 5 3 5 5 6 5 3 4 6 8 8 8 9 6 8 9 10 10 10 10 10 9 9 8 8 8 6 4 4 5 6 9 11
9 8 4 7 4 6 4 1 4 4 4 3 2 3 3 4 6 5 4 7 7 6 8 9 9 9 10 11 10 10 10 9 9 8 8 7 6 5 4 4 6 9 10
10 10 9 8 6 7 2 3 7 4 3 3 2 3 5 5 8 8 7 5 8 10 8 7 8 9 10 10 11 11 10 10 10 10 9 9 7 6 6 5 6 8 9
5 12 10 9 9 8 4 5 4 6 6 4 3 1 4 6 5 7 9 10 9 8 10 9 8 8 9 10 10 11 11 10 10 10 10 10 9 8 7 6 7 7 8
7 9 13 10 10 6 3 3 6 1 2 4 3 6 6 5 6 10 9 9 9 9 9 11 11 9 8 7 7 8 10 11 11 10 9 9 9 8 7 7 7 8 8
9 7 11 10 10 6 2 0 3 2 2 2 6 1 9 5 5 8 7 8 10 11 7 9 11 12 12 10 8 7 8 9 10 11 10 9 9 8 8 8 8 8 8
12 10 11 7 9 3 1 1 1 4 6 5 12 9 15 11 8 12 4 8 9 10 11 11 11 11 11 12 13 11 8 8 10 11 12 11 9 8 8 9 9 9 9
9 10 8 6 4 4 2 2 4 4 4 3 8 9 11 5 13 16 13 6 9 5 8 12 12 11 11 10 11 12 11 10 10 11 12 13 12 11 10 10 10 9 9
8 7 4 2 2 3 3 2 3 3 4 6 7 7 7 7 4 9 10 6 3 9 14 15 13 12 11 11 12 10 10 11 11 12 12 13 14 14 13 12 11 11 11
2 1 1 2 3 3 3 4 3 4 6 9 11 12 12 10 9 8 10 11 5 10 19 8 12 11 12 12 12 12 12 11 11 12 12 13 14 14 14 14 14 14 13
3 1 2 3 3 5 6 7 6 6 6 7 9 11 13 14 11 12 11 10 13 13 12 12 13 20 12 9 12 16 14 13 13 13 13 13 14 15 16 16 16 16 15
4 3 3 2 3 4 4 6 6 7 7 10 10 12 13 14 15 16 17 16 14 14 14 14 16 14 15 16 17 16 12 17 16 14 15 15 15 15 16 17 17 17 17
8 5 7 6 4 4 5 6 7 7 7 8 9 10 13 12 13 16 16 19 19 14 14 20 19 20 19 12 9 13 15 22 21 18 17 18 18 18 19 19 20 20 20
9 7 6 7 9 8 8 9 10 10 11 12 12 13 14 15 16 15 14 14 18 22 16 18 24 17 18 22 15 14 12 20 21 22 19 21 21 22 23 23 23 22 22
11 12 13 12 12 12 12 14 15 15 15 15 15 15 15 16 18 19 19 18 19 21 22 20 21 23 16 14 15 17 17 20 22 26 23 24 25 26 27 27 27 27 25
16 18 18 19 20 19 19 18 18 18 19 19 19 19 19 19 19 20 21 22 24 24 23 24 22 21 24 21 17 21 23 21 20 22 24 26 27 27 29 29 29 32 32
19 20 22 24 25 27 27 26 27 25 23 24 24 25 24 24 24 24 24 24 25 26 27 27 27 24 22 25 27 27 23 22 25 28 29 26 26 26 30 30 33 34 34
22 23 24 26 28 30 29 29 31 31 31 29 29 31 30 30 30 31 30 30 30 29 28 29 30 30 29 27 30 32 30 26 27 28 33 31 33 29 18 25 28 41 39
26 26 27 28 30 32 34 33 35 36 36 36 35 34 35 35 35 36 37 35 32 32 32 32 30 31 34 33 33 35 33 30 30 34 35 32 36 37 17 21 24 32 39
28 29 30 31 32 33 35 37 38 38 38 38 38 37 37 38 39 40 41 40 39 37 34 35 34 35 38 37 36 37 39 35 33 36 39 32 32 28 26 25 23 24 29
30 30 31 32 33 33 35 37 38 39 39 39 39 40 40 41 44 45 46 44 42 40 40 39 37 36 36 37 39 40 40 42 37 37 42 39 35 34 31 27 27 24 27
33 33 33 33 34 34 36 38 40 41 42 42 42 44 45 47 47 48 48 47 48 42 44 44 43 40 39 38 40 41 42 44 43 40 36 43 39 37 34 36 32 31 25
Wind_Direction
324 282 261 262 201 273 303 134 130 101 74 74 66 21 346 323 42 16 70 72 86 123 145 164 168 179 183 185 180 180 186 182 177 174 163 151 162 166 148 133 140 162 169
332 308 232 215 231 250 260 191 272 73 348 85 86 24 22 65 68 66 71 104 108 129 143 149 165 180 183 182 178 181 181 184 185 178 175 143 150 166 155 150 149 157 170
332 296 28 237 207 226 191 275 293 356 42 61 69 78 68 65 78 95 106 128 124 125 146 165 168 175 186 184 183 186 181 176 185 185 179 150 153 163 163 157 159 162 170
314 335 245 170 197 205 225 248 197 292 35 82 144 222 142 130 126 123 110 143 126 133 149 164 164 168 180 186 183 186 180 173 172 183 183 174 176 178 169 155 158 158 168
296 302 278 208 178 202 218 184 166 138 167 170 144 165 174 135 124 56 61 105 129 151 171 173 167 170 169 173 179 182 180 178 179 179 183 190 179 184 172 158 160 159 166
280 271 207 186 194 209 211 239 191 167 150 205 135 172 152 169 154 144 183 141 137 159 167 178 173 170 170 164 161 165 166 169 170 176 175 180 177 176 173 168 165 161 165
263 239 210 218 207 204 171 48 210 207 70 84 166 213 166 183 182 160 172 162 157 164 176 180 169 167 166 161 154 151 154 158 163 171 172 175 182 182 181 181 181 171 171
277 204 212 207 201 207 217 298 337 238 95 194 331 134 309 199 199 194 175 170 174 165 174 182 179 178 172 166 166 160 159 161 168 177 175 177 180 187 195 190 186 187 188
228 225 211 203 198 199 222 286 322 285 144 184 344 6 340 336 208 213 180 163 184 179 172 183 182 189 186 190 185 180 182 179 180 185 191 189 187 188 197 204 201 201 206
167 181 178 207 183 184 238 289 359 344 319 31 263 288 319 290 255 250 211 159 205 173 179 208 190 188 193 194 205 214 212 215 206 195 195 201 202 198 200 210 216 221 226
102 137 140 161 126 181 244 266 273 286 312 292 316 314 1 360 351 316 336 177 197 192 182 206 201 192 201 202 192 204 217 230 231 226 215 209 210 210 209 211 215 218 222
120 121 135 145 158 178 211 246 274 266 282 303 326 343 340 305 357 11 341 210 213 196 218 209 199 191 192 206 204 199 202 210 225 234 233 227 220 217 219 222 222 219 221
57 94 125 156 188 210 230 224 224 247 291 308 312 321 324 327 301 352 356 37 230 219 225 218 214 186 189 202 207 207 208 213 220 230 232 234 232 227 224 222 222 224 228
78 125 140 182 207 236 257 255 275 292 304 309 315 319 322 321 323 312 315 298 282 304 296 199 234 216 218 190 219 223 212 214 223 226 234 238 237 234 230 229 228 230 232
3 11 239 245 239 240 250 251 258 258 269 279 296 309 313 314 318 307 290 278 278 285 297 304 328 234 219 210 213 223 229 227 225 227 228 235 241 243 241 237 235 235 235
359 338 318 291 268 271 276 286 287 289 288 294 296 297 310 306 308 315 301 293 289 299 302 295 289 293 235 194 225 231 234 245 233 231 238 234 235 237 239 242 243 246 247
319 298 307 299 295 309 301 291 290 301 290 285 294 303 307 310 307 308 310 291 292 293 293 292 289 299 295 303 272 310 275 249 245 237 233 237 240 241 241 239 238 238 238
303 281 289 293 279 282 288 289 285 276 278 281 282 289 295 301 303 303 304 294 295 298 292 283 290 295 303 305 317 311 288 237 244 246 245 248 242 244 244 245 246 246 246
297 287 283 276 284 288 289 287 288 290 290 289 288 291 296 300 298 296 297 293 291 293 293 286 277 285 278 276 277 274 266 250 244 243 254 250 253 254 250 250 247 242 238
290 289 289 288 287 286 285 287 292 293 292 294 296 297 296 297 296 297 295 292 288 288 290 289 292 282 279 277 269 262 257 263 267 268 267 257 254 257 260 263 266 263 255
288 287 284 280 281 282 283 284 284 287 291 292 295 296 296 293 293 292 291 291 293 294 290 283 283 281 273 269 268 264 267 265 267 264 263 253 256 259 257 256 263 258 256
296 292 288 287 284 281 280 280 283 283 285 289 291 292 294 295 294 292 291 290 290 291 292 290 285 281 277 272 269 265 264 264 263 264 261 261 268 258 261 252 264 252 246
293 293 291 288 285 284 283 281 279 280 281 283 286 287 288 289 288 287 287 288 287 287 289 289 288 285 278 273 271 269 263 261 263 263 265 264 263 274 272 269 278 247 246
285 285 286 285 282 280 279 280 280 279 279 280 281 282 282 283 286 285 282 283 286 283 282 282 283 282 281 279 272 266 269 267 265 269 269 267 267 264 257 260 263 263 263
281 281 281 281 282 282 282 281 280 281 283 283 283 283 283 284 284 282 282 281 280 282 281 279 277 278 279 279 278 275 270 268 268 269 271 271 267 268 268 260 260 261 256
287 287 287 286 285 285 285 285 286 285 283 282 282 283 284 284 283 283 281 280 282 279 275 276 277 278 278 277 274 275 273 270 267 265 268 270 268 266 267 272 270 268 260